MELBOURNE AIRPORT, Australia

6:26 PM AEDT on January 23, 2017 (GMT +1100)
Melbourne International

Weather History for YMML - March, 2013

Change the Weather History Date:

Sunday, March 24, 2013

  Actual Average Record
Temperature  
Mean Temperature 68 °F -  
Max Temperature 77 °F 67 °F 89 °F (2002)
Min Temperature 59 °F 49 °F 48 °F (1998)
Cooling Degree Days 3    
Growing Degree Days 18 (Base 50)    
Moisture  
Dew Point 50 °F    
Average Humidity 52    
Maximum Humidity 68    
Minimum Humidity 25    
Precipitation  
Precipitation 0.00 in 0.06 in - ()
Sea Level Pressure  
Sea Level Pressure 29.92 in    
Wind  
Wind Speed 15 mph ()    
Max Wind Speed 24 mph    
Max Gust Speed 34 mph    
Visibility 7.8 miles    
Events Rain    
Averages and records for this station are not official NWS values.
T = Trace of Precipitation, MM = Missing Value Source: Averaged Metar Reports

Daily Weather History Graph

Daily Weather History Graph

Search for Another Location

Airport or City:

Trip Planner

Search our weather history database for the weather conditions in past years. The results will help you decide how hot, cold, wet, or windy it might be!

Date:

Astronomy

Mar. 24, 2013 Rise Set
Actual Time 7:27 AM AEDT 7:26 PM AEDT
Civil Twilight 7:00 AM AEDT 7:52 PM AEDT
Nautical Twilight 6:30 AM AEDT 8:22 PM AEDT
Astronomical Twilight 5:59 AM AEDT 8:53 PM AEDT
Moon 5:21 PM AEDT (3/24) 3:55 AM AEDT (3/24)
Length of Visible Light 12h 51m
Length of Day
11h 59m
Waxing Gibbous, 87% of the Moon is Illuminated
Mar 24
Waxing Gibbous
Mar 27
Full
Apr 3
Last Quarter
Apr 10
New
Apr 18
First Quarter

Hourly Weather History & Observations

Time (AEDT) Temp. Dew Point Humidity Pressure Visibility Wind Dir Wind Speed Gust Speed Precip Events Conditions
12:00 AM 64 °F 48 °F 46% 29.94 in 19 mi North 19.6 mph - -   Partly Cloudy
12:00 AM 64.4 °F 48.2 °F 56% 29.95 in - North 19.6 mph - N/A   Clear
12:30 AM 62.6 °F 50.0 °F 63% 29.95 in - North 19.6 mph - N/A   Clear
12:46 AM 62.6 °F 50.0 °F 63% 29.95 in - North 19.6 mph 31.1 mph N/A   Clear
1:00 AM 62.6 °F 50.0 °F 63% 29.92 in - North 19.6 mph - N/A   Clear
1:17 AM 62.6 °F 50.0 °F 63% 29.92 in - North 17.3 mph 29.9 mph N/A   Clear
1:30 AM 60.8 °F 50.0 °F 68% 29.92 in - North 16.1 mph - N/A   Clear
2:00 AM 60 °F 50 °F 60% 29.92 in - North 12.7 mph - -  
2:00 AM 60.8 °F 50.0 °F 68% 29.92 in - North 12.7 mph - N/A   Clear
2:30 AM 60.8 °F 50.0 °F 68% 29.89 in - North 15.0 mph - N/A   Clear
3:00 AM 60 °F 49 °F 58% 29.90 in 19 mi North 13.8 mph - -   Partly Cloudy
3:00 AM 60.8 °F 50.0 °F 68% 29.89 in - North 13.8 mph - N/A   Clear
3:30 AM 59.0 °F 48.2 °F 67% 29.89 in 6.2 mi North 17.3 mph - N/A   Partly Cloudy
4:00 AM 60.8 °F 48.2 °F 63% 29.89 in - North 19.6 mph - N/A   Clear
4:30 AM 60.8 °F 48.2 °F 63% 29.89 in - North 17.3 mph - N/A   Clear
5:00 AM 60 °F 48 °F 55% 29.88 in - North 15.0 mph - -  
5:00 AM 59.0 °F 48.2 °F 67% 29.86 in - North 15.0 mph - N/A   Clear
5:30 AM 60.8 °F 48.2 °F 63% 29.83 in - North 16.1 mph - N/A   Clear
6:00 AM 61 °F 47 °F 49% 29.85 in 19 mi North 16.1 mph - -   Partly Cloudy
6:00 AM 60.8 °F 46.4 °F 59% 29.86 in - North 16.1 mph - N/A   Clear
6:30 AM 60.8 °F 48.2 °F 63% 29.86 in - North 11.5 mph - N/A   Clear
7:00 AM 62.6 °F 46.4 °F 55% 29.89 in 6.2 mi North 16.1 mph - N/A   Mostly Cloudy
7:30 AM 60.8 °F 46.4 °F 59% 29.92 in 6.2 mi North 10.4 mph - N/A   Mostly Cloudy
8:00 AM 61 °F 46 °F 48% 29.93 in - North 10.4 mph - -  
8:00 AM 60.8 °F 46.4 °F 59% 29.92 in 6.2 mi North 10.4 mph - N/A   Mostly Cloudy
8:30 AM 62.6 °F 46.4 °F 55% 29.92 in 6.2 mi North 17.3 mph - N/A   Scattered Clouds
9:00 AM 64 °F 49 °F 47% 29.91 in 25 mi North 19.6 mph - -   Partly Cloudy
9:00 AM 64.4 °F 48.2 °F 56% 29.89 in 6.2 mi North 19.6 mph - N/A   Scattered Clouds
9:30 AM 66.2 °F 50.0 °F 56% 29.86 in 6.2 mi North 24.2 mph - N/A   Partly Cloudy
9:41 AM 66.2 °F 50.0 °F 56% 29.89 in 6.2 mi NNW 16.1 mph - N/A   Partly Cloudy
10:00 AM 69.8 °F 50.0 °F 49% 29.92 in 6.2 mi NNW 11.5 mph - N/A   Partly Cloudy
10:19 AM 71.6 °F 48.2 °F 43% 29.92 in 6.2 mi NW 18.4 mph 29.9 mph N/A   Partly Cloudy
10:30 AM 69.8 °F 48.2 °F 46% 29.92 in 6.2 mi NW 19.6 mph - N/A   Partly Cloudy
11:00 AM 73 °F 47 °F 28% 29.91 in - NW 20.7 mph - -  
11:00 AM 73.4 °F 46.4 °F 38% 29.92 in 6.2 mi NW 20.7 mph 34.5 mph N/A   Partly Cloudy
11:30 AM 73.4 °F 44.6 °F 36% 29.92 in 6.2 mi NW 21.9 mph 33.4 mph N/A   Mostly Cloudy
12:00 PM 74 °F 46 °F 26% 29.91 in 25 mi NW 21.9 mph - -   Partly Cloudy
12:00 PM 75.2 °F 46.4 °F 36% 29.92 in 6.2 mi NW 21.9 mph - N/A   Mostly Cloudy
12:04 PM 75.2 °F 46.4 °F 36% 29.92 in 6.2 mi NW 23.0 mph 34.5 mph N/A   Mostly Cloudy
12:30 PM 75.2 °F 48.2 °F 38% 29.89 in - NW 23.0 mph - N/A   Clear
1:00 PM 75.2 °F 46.4 °F 36% 29.89 in - NW 20.7 mph - N/A   Clear
1:30 PM 75.2 °F 46.4 °F 36% 29.89 in - WNW 21.9 mph - N/A   Clear
2:00 PM 76 °F 47 °F 25% 29.90 in - WNW 19.6 mph - -  
2:00 PM 77.0 °F 46.4 °F 34% 29.89 in - WNW 19.6 mph - N/A   Clear
2:11 PM 75.2 °F 46.4 °F 36% 29.89 in - NW 18.4 mph 29.9 mph N/A   Clear
2:30 PM 75.2 °F 46.4 °F 36% 29.89 in - NW 17.3 mph - N/A   Clear
3:00 PM 75 °F 47 °F 26% 29.89 in 19 mi West 15.0 mph - -   Mostly Cloudy
3:00 PM 75.2 °F 46.4 °F 36% 29.89 in - West 15.0 mph - N/A   Clear
3:30 PM 75.2 °F 46.4 °F 36% 29.89 in 5.6 mi NW 15.0 mph - N/A Rain Light Rain Showers
4:00 PM 69.8 °F 57.2 °F 64% 29.89 in - SW 15.0 mph - N/A   Clear
4:30 PM 71.6 °F 53.6 °F 53% 29.89 in - SW 12.7 mph - N/A   Clear
5:00 PM 74 °F 52 °F 35% 29.90 in - SW 9.2 mph - -  
5:00 PM 73.4 °F 51.8 °F 47% 29.89 in - SW 9.2 mph - N/A   Clear
5:30 PM 75.2 °F 51.8 °F 44% 29.89 in - WSW 10.4 mph - N/A   Clear
5:51 PM 71.6 °F 53.6 °F 53% 29.92 in - SSW 18.4 mph 32.2 mph N/A   Clear
6:00 PM 69 °F 54 °F 50% 29.92 in 25 mi SW 21.9 mph - -   Partly Cloudy
6:00 PM 69.8 °F 55.4 °F 60% 29.92 in - SW 21.9 mph - N/A   Clear
6:30 PM 69.8 °F 53.6 °F 56% 29.92 in 6.2 mi SW 15.0 mph - N/A   Partly Cloudy
7:00 PM 69.8 °F 53.6 °F 56% 29.92 in 6.2 mi SW 9.2 mph - N/A   Partly Cloudy
7:30 PM 66.2 °F 55.4 °F 68% 29.95 in 6.2 mi SW 1.2 mph - N/A   Partly Cloudy
8:00 PM 67 °F 54 °F 53% 29.96 in - WSW 1.2 mph - -  
8:00 PM 66.2 °F 53.6 °F 64% 29.95 in 6.2 mi WSW 1.2 mph - N/A   Scattered Clouds
8:30 PM 68.0 °F 53.6 °F 60% 29.98 in 6.2 mi WSW 15.0 mph - N/A   Mostly Cloudy
9:00 PM 66 °F 53 °F 53% 30.00 in 25 mi SSW 13.8 mph - -   Partly Cloudy
9:00 PM 66.2 °F 53.6 °F 64% 30.01 in 6.2 mi SSW 13.8 mph - N/A   Mostly Cloudy
9:30 PM 66.2 °F 51.8 °F 60% 30.01 in 6.2 mi SSW 11.5 mph - N/A   Mostly Cloudy
10:00 PM 64.4 °F 53.6 °F 68% 30.04 in 6.2 mi SSW 6.9 mph - N/A   Mostly Cloudy
10:30 PM 64.4 °F 53.6 °F 68% 30.04 in 6.2 mi SSW 5.8 mph - N/A   Mostly Cloudy
11:00 PM 62 °F 51 °F 57% 30.05 in - SW 8.1 mph - -  
11:00 PM 62.6 °F 50.0 °F 63% 30.04 in 6.2 mi SW 8.1 mph - N/A   Scattered Clouds
11:30 PM 60.8 °F 50.0 °F 68% 30.04 in 6.2 mi SW 5.8 mph - N/A   Partly Cloudy